GW5339 Weather Reports


time (UTC)temp
F
wind
direction
speed
knots
gust
knots
rain 1hr
in
rain 24hr
in
rain mn
in
humidity
%
barometer
mb
20260906071525 68 20 0.0 0.0 0.00 0.36 0.00 92 1011.9
20260906070030 68 20 0.0 0.0 0.00 0.36 0.00 92 1012.1
20260906064530 68 20 0.0 0.0 0.00 0.36 0.00 92 1012.3
20260906063036 68 20 0.0 0.0 0.00 0.36 0.00 92 1012.5
20260906061522 68 20 0.0 0.0 0.00 0.36 0.00 92 1012.9
20260906060025 68 20 0.0 0.0 0.00 0.36 0.00 92 1013.0
20260906054533 69 20 0.0 0.0 0.00 0.36 0.00 92 1013.2
20260906053030 69 20 0.0 0.0 0.00 0.36 0.00 92 1013.2
20260906051548 69 20 0.0 0.0 0.00 0.36 0.00 92 1013.3
20260906050017 69 20 0.0 0.0 0.00 0.36 0.00 92 1013.4
20260906044528 69 20 0.0 0.0 0.00 0.36 0.00 92 1013.4
20260906043030 70 20 0.0 0.0 0.00 0.36 0.00 92 1013.6
20260906041531 70 20 0.0 0.0 0.00 0.36 0.00 92 1013.7
20260906040035 70 20 0.0 0.0 0.00 0.36 0.00 92 1013.8
20260906034526 70 20 0.0 0.0 0.00 0.36 0.36 92 1013.5
20260906033038 70 20 0.0 0.0 0.00 0.36 0.36 91 1013.7
20260906031537 70 20 0.0 0.0 0.00 0.36 0.36 91 1013.8
20260906030035 70 20 0.0 0.0 0.00 0.36 0.36 91 1013.6
20260906024545 71 20 0.0 0.0 0.00 0.36 0.36 92 1013.6
20260906023024 71 20 0.0 0.0 0.00 0.36 0.36 91 1013.5
20260906021526 71 20 0.0 0.0 0.00 0.36 0.36 91 1013.4
20260906020030 72 259 0.0 0.0 0.00 0.36 0.36 91 1013.3
20260906014549 72 259 0.0 0.0 0.00 0.36 0.36 91 1013.5
20260906013044 73 259 0.0 0.0 0.00 0.36 0.36 91 1013.3
20260906011526 73 259 0.0 0.0 0.00 0.36 0.36 91 1013.1
20260906010028 73 259 0.0 0.0 0.00 0.36 0.36 90 1013.0
20260906004530 74 269 0.0 0.0 0.00 0.36 0.36 90 1012.9
20260906003034 74 269 0.0 0.0 0.00 0.36 0.36 89 1012.7
20260906001537 75 268 0.0 0.0 0.00 0.36 0.36 88 1012.1
20260906000026 76 264 0.0 0.0 0.00 0.36 0.36 86 1012.0
20260905234532 77 264 0.0 0.0 0.00 0.36 0.36 83 1011.9
20260905233032 78 264 0.0 0.0 0.00 0.36 0.36 82 1011.7
20260905231535 78 264 0.0 0.0 0.00 0.36 0.36 80 1011.7
20260905230037 78 264 0.0 0.0 0.00 0.36 0.36 81 1011.7
20260905224528 79 264 0.0 0.0 0.00 0.36 0.36 82 1011.7
20260905223033 79 264 0.0 0.0 0.00 0.36 0.36 83 1011.8
20260905221524 79 264 0.0 0.0 0.00 0.36 0.36 81 1011.9
20260905220015 79 264 0.0 0.0 0.00 0.36 0.36 80 1012.0
20260905214526 78 264 0.0 0.0 0.00 0.36 0.36 81 1012.1
20260905213022 79 264 0.0 0.0 0.00 0.36 0.36 82 1012.4
20260905211536 80 264 0.0 0.0 0.00 0.36 0.36 80 1012.4
20260905210024 80 264 0.0 0.0 0.00 0.36 0.36 80 1012.3
20260905204526 79 181 0.0 0.0 0.00 0.36 0.36 88 1012.2
20260905203027 78 181 0.0 0.0 0.00 0.36 0.36 88 1012.4
20260905201526 78 179 0.0 0.0 0.00 0.36 0.36 88 1012.8
20260905200035 77 179 0.0 0.0 0.00 0.36 0.36 89 1012.8
20260905194528 77 179 0.0 0.0 0.00 0.36 0.36 88 1012.8
20260905193018 77 134 0.0 0.0 0.00 0.36 0.36 89 1012.8
20260905191527 76 134 0.0 0.0 0.00 0.36 0.36 90 1012.7
20260905190027 76 132 0.0 0.0 0.00 0.36 0.36 90 1012.4
20260905184535 75 132 0.0 0.0 0.00 0.36 0.36 90 1012.1
20260905183032 74 257 0.0 0.0 0.00 0.36 0.36 91 1012.5
20260905181521 73 348 0.0 0.0 0.20 0.36 0.36 90 1013.1
20260905180028 72 293 0.0 1.7 0.35 0.36 0.36 90 1013.6
20260905174530 73 280 0.0 0.9 0.35 0.36 0.36 88 1014.1
20260905173028 75 274 0.9 5.2 0.35 0.36 0.36 81 1014.6
20260905171530 82 243 2.6 9.6 0.15 0.16 0.16 71 1014.7
20260905170024 93 7 0.0 1.7 0.00 0.01 0.01 54 1013.8
20260905164529 95 22 0.0 1.7 0.00 0.01 0.01 53 1014.0
20260905163035 95 37 0.0 1.7 0.00 0.01 0.01 53 1014.2
20260905161535 94 357 0.0 1.7 0.00 0.01 0.01 53 1014.3
20260905160029 93 53 0.0 1.7 0.00 0.01 0.01 57 1014.6
20260905154524 92 222 0.0 0.9 0.01 0.01 0.01 55 1014.6
20260905153031 92 218 0.0 2.6 0.01 0.01 0.01 57 1014.4
20260905151534 91 221 0.0 1.7 0.01 0.01 0.01 61 1014.3
20260905150034 90 278 0.0 0.9 0.01 0.01 0.01 60 1014.4
20260905144532 90 248 0.0 1.7 0.00 0.00 0.00 62 1014.4
20260905143027 89 342 0.0 0.9 0.00 0.00 0.00 63 1014.5
20260905141535 87 279 0.0 0.9 0.00 0.00 0.00 71 1014.4
20260905140036 85 240 0.0 0.9 0.00 0.00 0.00 74 1014.4
20260905134537 83 44 0.0 0.0 0.00 0.00 0.00 78 1014.5
20260905133032 81 44 0.0 0.0 0.00 0.00 0.00 81 1014.7
20260905131504 79 44 0.0 0.9 0.00 0.00 0.00 86 1014.8
20260905130007 76 44 0.0 0.0 0.00 0.00 0.00 88 1014.9
20260905124512 73 44 0.0 0.0 0.00 0.00 0.00 91 1014.9
20260905123021 71 44 0.0 0.0 0.00 0.00 0.00 92 1014.9
20260905121503 70 44 0.0 0.0 0.00 0.00 0.00 92 1014.8
20260905120004 70 44 0.0 0.0 0.00 0.00 0.00 92 1014.5
20260905114510 69 44 0.0 0.0 0.00 0.00 0.00 92 1014.6
20260905113016 69 44 0.0 0.0 0.00 0.00 0.00 92 1014.4
20260905111526 68 44 0.0 0.0 0.00 0.00 0.00 92 1014.3
20260905110004 69 44 0.0 0.9 0.00 0.00 0.00 92 1014.1
20260905104505 68 44 0.0 0.0 0.00 0.00 0.00 92 1013.9
20260905103012 68 44 0.0 0.0 0.00 0.00 0.00 92 1014.0
20260905101522 69 44 0.0 0.0 0.00 0.00 0.00 92 1013.8
20260905100031 69 44 0.0 0.9 0.00 0.00 0.00 92 1013.8
20260905094505 69 257 0.0 0.0 0.00 0.00 0.00 92 1013.7
20260905093008 69 257 0.0 0.0 0.00 0.00 0.00 92 1013.7
20260905091514 69 257 0.0 0.0 0.00 0.00 0.00 92 1013.6
20260905090020 69 257 0.0 0.0 0.00 0.00 0.00 91 1013.7
20260905084526 70 257 0.0 0.0 0.00 0.00 0.00 91 1013.9
20260905083030 70 257 0.0 0.0 0.00 0.00 0.00 91 1014.1
20260905081519 70 257 0.0 0.0 0.00 0.00 0.00 91 1014.2
20260905080029 70 257 0.0 0.0 0.00 0.00 0.00 91 1014.4
20260905074524 70 257 0.0 0.0 0.00 0.00 0.00 91 1014.4
20260905073033 70 257 0.0 0.0 0.00 0.00 0.00 91 1014.4